When you browse on this site, cookies collect data to enhance your experience and personalize the content and advertising you see.
Visit our Privacy Policy to learn more. By continuing to use the site, you agree to this use of cookies and data.
  • En España
  • Lista de países
  • Para 7 días
  • Temperatura del agua
  • El tiempo en el mapa
  • Informadores
  • user-avatar
    Iniciar sesión

    Tiempo cada hora Neuquén

    Hoy, 1 Junio, Lunes

    Tiempo Temperatura Precipitaciones Viento Presión Humedad
    00:00 +8°C° 0 mm 2 mps 738 mmHg 44%
    01:00 +7°C° 0 mm 2 mps 738 mmHg 46%
    02:00 +7°C° 0 mm 2 mps 737 mmHg 47%
    03:00 +7°C° 0 mm 2 mps 737 mmHg 49%
    04:00 +6°C° 0 mm 2 mps 736 mmHg 50%
    05:00 +6°C° 0 mm 2 mps 736 mmHg 50%
    06:00 +6°C° 0 mm 2 mps 737 mmHg 49%
    07:00 +6°C° 0 mm 2 mps 737 mmHg 49%
    08:00 +8°C° 0 mm 2 mps 736 mmHg 44%
    09:00 +9°C° 0 mm 2 mps 736 mmHg 39%
    10:00 +12°C° 0 mm 2 mps 736 mmHg 34%
    11:00 +12°C° 0 mm 3 mps 736 mmHg 32%
    12:00 +13°C° 0 mm 3 mps 735 mmHg 30%
    13:00 +14°C° 0 mm 3 mps 735 mmHg 28%
    14:00 +14°C° 0 mm 3 mps 734 mmHg 31%
    15:00 +14°C° 0 mm 2 mps 734 mmHg 34%
    16:00 +13°C° 0 mm 2 mps 734 mmHg 37%
    17:00 +13°C° 0 mm 2 mps 734 mmHg 39%
    18:00 +12°C° 0 mm 2 mps 734 mmHg 40%
    19:00 +11°C° 0 mm 3 mps 734 mmHg 42%
    20:00 +10°C° 0 mm 3 mps 734 mmHg 43%
    21:00 +10°C° 0 mm 3 mps 734 mmHg 45%
    22:00 +10°C° 0 mm 3 mps 734 mmHg 46%
    23:00 +10°C° 0 mm 3 mps 734 mmHg 50%

    Mañana, 2 Junio, Martes

    Tiempo Temperatura Precipitaciones Viento Presión Humedad
    00:00 +10°C° 0 mm 3 mps 733 mmHg 53%
    01:00 +10°C° 0 mm 3 mps 733 mmHg 57%
    02:00 +10°C° 0 mm 3 mps 733 mmHg 56%
    03:00 +10°C° 0 mm 4 mps 733 mmHg 55%
    04:00 +8°C° 0 mm 4 mps 733 mmHg 54%
    05:00 +9°C° 0 mm 3 mps 733 mmHg 54%
    06:00 +9°C° 0 mm 3 mps 733 mmHg 54%
    07:00 +9°C° 0 mm 3 mps 733 mmHg 54%
    08:00 +10°C° 0 mm 2 mps 733 mmHg 50%
    09:00 +13°C° 0 mm 2 mps 733 mmHg 46%
    10:00 +14°C° 0 mm 2 mps 732 mmHg 42%
    11:00 +15°C° 0 mm 2 mps 732 mmHg 41%
    12:00 +15°C° 0 mm 1 mps 732 mmHg 39%
    13:00 +16°C° 0 mm 1 mps 731 mmHg 38%
    14:00 +15°C° 0 mm 1 mps 731 mmHg 43%
    15:00 +15°C° 0 mm 1 mps 731 mmHg 47%
    16:00 +14°C° 0 mm 2 mps 731 mmHg 52%
    17:00 +13°C° 0.1 mm 2 mps 732 mmHg 58%
    18:00 +12°C° 0.1 mm 3 mps 732 mmHg 64%
    19:00 +11°C° 0.1 mm 4 mps 732 mmHg 70%
    20:00 +10°C° 0.6 mm 4 mps 733 mmHg 75%
    21:00 +9°C° 0.6 mm 5 mps 733 mmHg 81%
    22:00 +8°C° 0.6 mm 5 mps 734 mmHg 86%
    23:00 +8°C° 0.2 mm 4 mps 734 mmHg 83%

    Pasado mañana, 3 Junio, Miércoles

    Tiempo Temperatura Precipitaciones Viento Presión Humedad
    00:00 +9°C° 0.2 mm 3 mps 735 mmHg 81%
    01:00 +9°C° 0.2 mm 2 mps 735 mmHg 79%
    02:00 +8°C° 0.1 mm 5 mps 736 mmHg 78%
    03:00 +8°C° 0.1 mm 7 mps 737 mmHg 76%
    04:00 +7°C° 0.1 mm 10 mps 737 mmHg 75%
    05:00 +6°C° 0 mm 10 mps 738 mmHg 75%
    06:00 +6°C° 0 mm 10 mps 739 mmHg 75%
    07:00 +6°C° 0 mm 10 mps 740 mmHg 75%
    08:00 +6°C° 0 mm 10 mps 741 mmHg 73%
    09:00 +6°C° 0 mm 10 mps 742 mmHg 71%
    10:00 +6°C° 0 mm 10 mps 742 mmHg 69%
    11:00 +7°C° 0 mm 9 mps 742 mmHg 66%
    12:00 +7°C° 0 mm 8 mps 742 mmHg 63%
    13:00 +9°C° 0 mm 8 mps 742 mmHg 61%
    14:00 +8°C° 0 mm 7 mps 742 mmHg 60%
    15:00 +8°C° 0 mm 6 mps 743 mmHg 60%
    16:00 +8°C° 0 mm 5 mps 743 mmHg 59%
    17:00 +8°C° 0 mm 5 mps 743 mmHg 62%
    18:00 +7°C° 0 mm 4 mps 743 mmHg 64%
    19:00 +8°C° 0 mm 3 mps 743 mmHg 67%
    20:00 +7°C° 0 mm 3 mps 744 mmHg 69%
    21:00 +7°C° 0 mm 2 mps 744 mmHg 72%
    22:00 +7°C° 0 mm 2 mps 744 mmHg 75%
    23:00 +6°C° 0 mm 2 mps 743 mmHg 77%

    4 Junio, Jueves

    Tiempo Temperatura Precipitaciones Viento Presión Humedad
    00:00 +7°C° 0 mm 1 mps 743 mmHg 79%
    01:00 +6°C° 0 mm 1 mps 743 mmHg 81%
    02:00 +5°C° 0 mm 0 mps 743 mmHg 83%
    03:00 +5°C° 0 mm 0 mps 742 mmHg 84%
    04:00 +4°C° 0 mm 0 mps 742 mmHg 86%
    05:00 +5°C° 0 mm 0 mps 742 mmHg 85%
    06:00 +5°C° 0 mm 0 mps 742 mmHg 84%
    07:00 +5°C° 0 mm 0 mps 742 mmHg 83%
    08:00 +7°C° 0 mm 1 mps 742 mmHg 78%
    09:00 +8°C° 0 mm 2 mps 742 mmHg 74%
    10:00 +9°C° 0 mm 3 mps 742 mmHg 69%
    11:00 +10°C° 0 mm 3 mps 741 mmHg 65%
    12:00 +10°C° 0 mm 3 mps 741 mmHg 62%
    13:00 +11°C° 0 mm 3 mps 740 mmHg 59%
    14:00 +11°C° 0 mm 3 mps 740 mmHg 60%
    15:00 +11°C° 0 mm 3 mps 739 mmHg 61%
    16:00 +11°C° 0 mm 3 mps 739 mmHg 62%
    17:00 +10°C° 0 mm 3 mps 739 mmHg 66%
    18:00 +9°C° 0 mm 3 mps 738 mmHg 69%
    19:00 +9°C° 0 mm 3 mps 738 mmHg 73%
    20:00 +8°C° 0 mm 3 mps 738 mmHg 76%
    21:00 +8°C° 0 mm 3 mps 738 mmHg 79%
    22:00 +8°C° 0 mm 3 mps 738 mmHg 82%
    23:00 +8°C° 0 mm 3 mps 737 mmHg 82%

    5 Junio, Viernes

    Tiempo Temperatura Precipitaciones Viento Presión Humedad
    00:00 +7°C° 0 mm 3 mps 737 mmHg 82%
    01:00 +7°C° 0 mm 3 mps 737 mmHg 82%
    02:00 +7°C° 0 mm 2 mps 736 mmHg 83%
    03:00 +6°C° 0 mm 2 mps 736 mmHg 84%
    04:00 +6°C° 0 mm 2 mps 736 mmHg 85%
    05:00 +7°C° 0 mm 1 mps 736 mmHg 84%
    06:00 +6°C° 0 mm 1 mps 735 mmHg 83%
    07:00 +6°C° 0 mm 1 mps 735 mmHg 82%
    08:00 +8°C° 0 mm 1 mps 735 mmHg 73%
    09:00 +8°C° 0 mm 2 mps 735 mmHg 64%
    10:00 +10°C° 0 mm 2 mps 736 mmHg 55%
    11:00 +10°C° 0 mm 2 mps 735 mmHg 49%
    12:00 +11°C° 0 mm 3 mps 734 mmHg 43%
    13:00 +12°C° 0 mm 3 mps 734 mmHg 37%
    14:00 +12°C° 0 mm 3 mps 733 mmHg 39%
    15:00 +12°C° 0 mm 2 mps 733 mmHg 41%
    16:00 +12°C° 0 mm 2 mps 733 mmHg 42%
    17:00 +11°C° 0 mm 1 mps 733 mmHg 44%
    18:00 +10°C° 0 mm 1 mps 733 mmHg 46%
    19:00 +10°C° 0 mm 1 mps 733 mmHg 47%
    20:00 +10°C° 0 mm 1 mps 733 mmHg 47%
    21:00 +9°C° 0 mm 1 mps 733 mmHg 47%
    22:00 +9°C° 0 mm 1 mps 733 mmHg 47%
    23:00 +9°C° 0 mm 1 mps 732 mmHg 49%

    6 Junio, Sábado

    Tiempo Temperatura Precipitaciones Viento Presión Humedad
    00:00 +8°C° 0 mm 2 mps 732 mmHg 51%
    01:00 +8°C° 0 mm 2 mps 732 mmHg 53%
    02:00 +8°C° 0 mm 2 mps 731 mmHg 55%
    03:00 +8°C° 0 mm 2 mps 731 mmHg 58%
    04:00 +7°C° 0 mm 3 mps 730 mmHg 60%
    05:00 +7°C° 0 mm 3 mps 730 mmHg 60%
    06:00 +7°C° 0 mm 3 mps 729 mmHg 59%
    07:00 +7°C° 0 mm 3 mps 729 mmHg 59%
    08:00 +8°C° 0 mm 3 mps 729 mmHg 55%
    09:00 +10°C° 0 mm 3 mps 728 mmHg 51%
    10:00 +11°C° 0 mm 3 mps 728 mmHg 47%
    11:00 +12°C° 0 mm 3 mps 727 mmHg 41%
    12:00 +13°C° 0 mm 3 mps 727 mmHg 36%
    13:00 +15°C° 0 mm 2 mps 726 mmHg 30%
    14:00 +15°C° 0 mm 2 mps 726 mmHg 31%
    15:00 +14°C° 0 mm 3 mps 727 mmHg 33%
    16:00 +14°C° 0 mm 3 mps 727 mmHg 34%
    17:00 +12°C° 0 mm 7 mps 728 mmHg 37%
    18:00 +12°C° 0 mm 10 mps 728 mmHg 40%
    19:00 +12°C° 0 mm 14 mps 729 mmHg 42%
    20:00 +12°C° 0 mm 14 mps 729 mmHg 42%
    21:00 +10°C° 0 mm 14 mps 730 mmHg 41%
    22:00 +10°C° 0 mm 14 mps 730 mmHg 40%
    23:00 +10°C° 0 mm 13 mps 730 mmHg 41%
    Mostrar más